Regional Weather Roundup
Issued by NWS

Home | Current Version | Previous Version | Text Only | Print | Product List | Glossary Off
Versions: 1 2 3 4 5 6 7 8 9 10 11 12 13 14 15 16 17 18 19 20 21 22 23 24 25 26 27 28 29 30 31 32 33 34 35 36 37 38 39 40 41 42 43 44 45 46 47 48 49 50

000
ASUS44 KMEG 240410
RWRTN
TENNESSEE HOURLY STATE WEATHER ROUNDUP
NATIONAL WEATHER SERVICE MEMPHIS TN
1000 PM CST THU NOV 23 2017

TNZ002-004-019-021-049-052-054-088>092-240500-
WEST TENNESSEE

CITY           SKY/WX    TMP DP  RH WIND       PRES   REMARKS
MEMPHIS INTL   CLEAR     40  30  67 S3        30.05S
NWS MEMPHIS      N/A     37 N/A N/A MISG        N/A
JACKSON        CLEAR     32  28  85 CALM      30.05F
DYERSBURG      CLEAR     38  29  70 CALM      30.05S
SOMERVILLE     CLEAR     34  27  75 CALM      30.04S
COVINGTON      CLEAR     32  28  86 CALM      30.05F
UNION CITY     PTCLDY    34  27  75 CALM      30.04S
BOLIVAR        CLEAR     32  27  80 CALM      30.05S
PARIS          PTCLDY    37  23  56 CALM      30.03S
HUNTINGDON     CLEAR     34  27  75 CALM      30.04S
LEXINGTON      CLEAR     34  25  69 CALM      30.05S
SELMER         CLEAR     36  25  64 CALM      30.05R
SAVANNAH       CLEAR     30  28  93 CALM      30.05S
$$

TNZ008-025-027-028-033-062-065-066-240500-
NORTH MIDDLE TENNESSEE

CITY           SKY/WX    TMP DP  RH WIND       PRES   REMARKS
NASHVILLE      CLEAR     36  28  73 S5        30.05R WCI  32
PORTLAND       CLEAR     32  27  80 CALM      30.04S
CLARKSVILLE    CLEAR     35  25  66 CALM      30.05R
SMYRNA         CLEAR     32  28  85 CALM      30.07R
COOKEVILLE     CLEAR     27  25  93 CALM      30.04R
GALLATIN       CLEAR     32  27  80 CALM      30.07S
CROSSVILLE     CLEAR     33  25  72 CALM      30.03R
$$

TNZ061-075-076-078-094-096-097-240500-
SOUTH MIDDLE TENNESSEE

CITY           SKY/WX    TMP DP  RH WIND       PRES   REMARKS
FAYETTEVILLE   PTCLDY    39  19  45 CALM      30.03S
TULLAHOMA      CLEAR     32  23  69 CALM      30.03S
WINCHESTER     CLEAR     30  28  93 CALM      30.05R
MCMINNVILLE    CLEAR     32  27  80 CALM      30.04S
COLUMBIA       CLEAR     32  27  80 CALM      30.03F
SHELBYVILLE    CLEAR     32  27  80 E5        30.04S WCI  27
$$

TNZ017-018-042-046-047-240500-
NORTHEAST TENNESSEE

CITY           SKY/WX    TMP DP  RH WIND       PRES   REMARKS
TRI CITIES     CLEAR     32  30  92 CALM      30.03S
ELIZABETHTON   PTCLDY    32  32 100 CALM      30.04S
$$

TNZ012-013-036-069-073-074-240500-
CENTRAL EAST TENNESSEE

CITY           SKY/WX    TMP DP  RH WIND       PRES   REMARKS
KNOXVILLE      CLEAR     38  34  85 CALM      30.02S
OAK RIDGE      CLEAR     35  33  92 CALM      30.05R
DOWNTOWN KNOXV CLEAR     36  36 100 CALM      30.05R FOG
GATLINBURG     CLEAR     34  32  93 CALM      30.03S
MORRISTOWN     CLEAR     37  32  81 CALM      30.02S
JACKSBORO      CLEAR     32  30  93 CALM      30.07S
$$

TNZ083-085-099-240500-
SOUTHEAST TENNESSEE

CITY           SKY/WX    TMP DP  RH WIND       PRES   REMARKS
CHATTANOOGA    CLEAR     38  35  89 CALM      30.04S
DAYTON         MOCLDY    34  34 100 CALM      30.03S
$$

SKY/WX REPORTED AS FAIR MEANS FEW OR NO CLOUDS BELOW
12 THOUSAND FEET.





USA.gov is the U.S. government's official web portal to all federal, state and local government web resources and services.